Date,TemperatureHighF,TemperatureAvgF,TemperatureLowF,DewpointHighF,DewpointAvgF,DewpointLowF,HumidityHigh,HumidityAvg,HumidityLow,PressureMaxIn,PressureMinIn,WindSpeedMaxMPH,WindSpeedAvgMPH,GustSpeedMaxMPH,PrecipitationSumIn
2013-3-1,54,42,31,36,32,28,94,69,41,30.16,30.05,8,1,14,0.00
2013-3-2,42,34,28,31,26,24,92,74,52,30.25,30.14,7,1,13,0.00
2013-3-3,57,39,24,32,25,21,92,63,29,30.28,30.09,5,1,8,0.00
2013-3-4,71,56,38,56,45,33,87,70,49,30.09,29.87,11,4,17,0.00
2013-3-5,69,60,46,62,50,28,90,70,35,30.18,29.86,7,2,16,0.00
2013-3-6,60,47,37,32,28,25,76,50,28,30.31,30.18,10,2,12,0.00
2013-3-7,64,48,32,40,34,29,88,63,33,30.35,30.21,4,1,6,0.00
2013-3-8,73,54,35,43,38,33,93,61,25,30.29,30.15,5,0,7,0.00
2013-3-9,70,60,50,58,51,42,88,72,55,30.14,29.92,7,2,13,0.00
2013-3-10,74,66,56,65,61,54,94,84,69,29.94,29.79,14,4,20,0.14
2013-3-11,58,49,40,54,42,37,95,79,47,30.01,29.85,8,2,13,1.60
2013-3-12,66,49,34,41,37,32,95,68,33,30.22,30.01,5,1,9,0.00
2013-3-13,63,51,40,38,30,19,88,51,19,30.38,30.22,8,2,15,0.00
2013-3-14,70,50,34,41,33,26,88,58,26,30.43,30.26,6,1,6,0.00
2013-3-15,77,60,44,48,42,38,88,56,27,30.26,30.07,6,1,13,0.00
2013-3-16,78,63,51,57,52,48,91,69,41,30.07,29.89,10,2,14,0.00
2013-3-17,78,66,54,64,58,52,95,79,55,29.94,29.76,7,2,12,0.01
2013-3-18,84,72,61,67,64,59,95,79,51,29.90,29.69,7,2,15,0.62
2013-3-19,74,60,47,58,42,37,92,56,27,30.03,29.90,8,2,12,0.00
2013-3-20,67,57,44,41,35,27,64,46,23,30.15,29.99,6,1,13,0.00
2013-3-21,64,52,41,42,34,25,82,54,32,30.06,29.83,6,1,8,0.00
2013-3-22,63,58,53,57,52,42,89,80,65,29.89,29.75,5,2,8,0.02
2013-3-23,71,64,61,67,63,58,97,94,87,29.80,29.55,6,1,6,0.19
2013-3-24,65,55,42,64,47,31,97,76,39,29.99,29.56,11,2,17,0.01
2013-3-25,55,43,33,30,26,20,81,54,27,30.26,30.00,12,2,17,0.01
2013-3-26,53,41,30,29,26,23,85,57,34,30.38,30.26,7,1,12,0.00
2013-3-27,64,45,29,36,29,26,91,59,27,30.43,30.26,5,1,8,0.00
2013-3-28,73,54,34,43,36,32,92,56,24,30.35,30.19,4,1,6,0.00
2013-3-29,77,59,42,54,46,39,92,64,33,30.28,30.13,5,1,10,0.00
2013-3-30,76,62,50,58,54,48,94,75,47,30.16,29.94,8,2,13,0.05
2013-3-31,69,61,57,64,58,55,97,92,81,30.00,29.81,5,1,18,0.26